Retour au catalogue

STARLINK-35138

ActifCommunicationsVLEO
NORAD 65420·PAYLOAD·🇺🇸 United States

Lancé Aug 31, 2025 depuis Cape Canaveral Space Force Station

Loading…

Prochains Passages (prochaines 24 heures)

TLE

FraisSource: CelesTrak SupGP

Époque: Sep 14, 2026, 22:24 UTC

1 65420C 25192S   26257.93381944  .00052425  00000+0  16860-2 0  2576
2 65420  53.1588  71.8127 0001209  77.9071 145.6861 15.31673036    15

Suivez STARLINK-35138 en temps réel avec AllMySat

Download on the App Store